Waarnemingen

Advertentie
Mijn weer
Dunkerque, Frankrijk (7010): temperatuur & dauwpunt: 15.06.2018 02:00:00 - 21.06.2018 02:00:00 (CEST)Dunkerque, Frankrijk (7010): windsnelheid & windstoten: 15.06.2018 02:00:00 - 21.06.2018 02:00:00 (CEST)Dunkerque, Frankrijk (7010): windrichting: 15.06.2018 02:00:00 - 21.06.2018 02:00:00 (CEST)Dunkerque, Frankrijk (7010): luchtdruk: 15.06.2018 02:00:00 - 21.06.2018 02:00:00 (CEST)Dunkerque, Frankrijk (7010): zicht: 15.06.2018 02:00:00 - 21.06.2018 02:00:00 (CEST)Dunkerque, Frankrijk (7010): neerslag: 15.06.2018 02:00:00 - 21.06.2018 02:00:00 (CEST)
Datum & Tijd tt [°C] td [°C] ff [km/u] ff [kn] fx [km/u] fx [kn] dd ppp [hPa] vv [km] rr [mm]
21.06.2018 02:00:00 16,1 14,1 15 8 39 21 WZW 1018,5 15 0,0
21.06.2018 01:00:00 15,7 13,5 23 12 38 20 W 1018,6 - 0,0
21.06.2018 00:00:00 16,3 13,6 19 10 34 18 ZW 1018,6 - 0,0
20.06.2018 23:00:00 17,1 14,0 20 11 38 20 ZW 1018,8 15 0,0
20.06.2018 22:00:00 17,9 14,2 23 13 40 22 ZW 1018,6 - 0,0
20.06.2018 21:00:00 20,0 14,4 24 13 42 23 WZW 1018,7 - 0,0
20.06.2018 20:00:00 21,3 14,9 21 11 37 20 WZW 1019,3 15 0,0
20.06.2018 19:00:00 21,6 15,0 21 11 36 19 ZW 1019,5 - 0,0
20.06.2018 18:00:00 21,4 15,2 19 11 40 22 W 1020,0 - 0,0
20.06.2018 17:00:00 22,7 14,5 24 13 38 20 ZW 1020,4 - 0,0
20.06.2018 16:00:00 20,2 15,2 22 12 35 19 W 1020,7 - 0,0
20.06.2018 15:00:00 22,1 14,7 19 10 41 22 ZW 1021,1 - 0,0
20.06.2018 14:00:00 21,0 14,6 22 12 39 21 ZW 1021,3 15 0,0
20.06.2018 13:00:00 20,5 14,6 19 11 36 20 ZW 1021,9 - 0,0
20.06.2018 12:00:00 19,6 14,4 20 11 32 17 ZW 1022,0 - 0,0
20.06.2018 11:00:00 18,2 14,3 19 10 31 17 ZW 1022,1 11 0,0
20.06.2018 10:00:00 16,6 14,1 16 8 28 15 ZZW 1022,4 - 0,0
20.06.2018 09:00:00 15,4 13,9 15 8 29 16 ZW 1022,5 - 0,0
20.06.2018 08:00:00 14,8 13,7 16 8 27 14 ZW 1022,5 11 0,0
20.06.2018 07:00:00 14,7 13,6 14 7 22 12 ZW 1022,5 - 0,0
20.06.2018 06:00:00 14,9 13,8 10 6 21 11 ZZW 1022,5 - 0,0
20.06.2018 05:00:00 15,0 13,9 15 8 26 14 ZW 1022,7 15 0,0
20.06.2018 04:00:00 15,0 14,0 15 8 27 15 ZW 1022,7 - 0,0
20.06.2018 03:00:00 15,1 14,0 14 8 28 15 ZW 1023,1 - 0,0
20.06.2018 02:00:00 15,2 13,9 14 8 24 13 ZW 1023,5 - 0,0
20.06.2018 01:00:00 15,4 13,9 14 7 30 16 ZZW 1023,6 - 0,0
20.06.2018 00:00:00 15,7 14,1 19 10 30 16 ZW 1023,9 - 0,0
19.06.2018 23:00:00 16,0 14,0 14 7 33 18 ZW 1024,2 12 0,0
19.06.2018 22:00:00 17,2 14,3 14 8 32 18 ZW 1023,8 - 0,0
19.06.2018 21:00:00 18,1 14,2 17 9 31 17 ZZW 1023,7 - 0,0
19.06.2018 20:00:00 19,0 14,5 19 10 31 17 ZW 1023,9 18 0,0
19.06.2018 19:00:00 19,5 14,5 19 10 32 18 ZW 1023,8 - 0,0
19.06.2018 18:00:00 20,2 14,6 19 10 34 18 ZW 1024,2 - 0,0
19.06.2018 17:00:00 18,1 15,2 16 9 25 14 WNW 1024,4 8 0,0
19.06.2018 16:00:00 18,1 14,6 8 5 30 16 WNW 1024,5 - 0,0
19.06.2018 15:00:00 19,2 13,8 14 7 26 14 ZW 1024,5 - 0,0
19.06.2018 14:00:00 17,2 15,2 13 7 31 17 W 1024,7 8 0,0
19.06.2018 13:00:00 17,3 14,9 21 11 30 16 W 1024,5 - 0,0
19.06.2018 12:00:00 17,6 15,2 13 7 24 13 W 1024,4 - 0,0
19.06.2018 11:00:00 18,9 15,0 12 7 30 16 W 1024,2 - 0,0
19.06.2018 10:00:00 18,0 14,7 13 7 29 16 WZW 1024,2 - 0,0
19.06.2018 09:00:00 16,9 14,5 15 8 27 15 ZW 1023,9 - 0,0
19.06.2018 08:00:00 16,5 14,3 17 9 32 18 ZW 1023,5 - 0,0
19.06.2018 07:00:00 16,3 14,1 18 10 31 17 ZW 1022,9 - 0,0
19.06.2018 06:00:00 16,6 14,2 17 9 32 17 ZW 1022,8 - 0,0
19.06.2018 05:00:00 16,5 14,5 19 11 38 21 ZW 1022,2 - 0,0
19.06.2018 04:00:00 16,5 14,3 21 12 36 19 ZW 1022,0 - 0,0
19.06.2018 03:00:00 15,8 14,0 23 12 41 22 ZW 1021,8 - 0,0
19.06.2018 02:00:00 15,7 14,1 22 12 46 25 WZW 1021,7 - 0,0
19.06.2018 01:00:00 15,7 13,9 27 14 48 26 WZW 1021,5 - 0,0
19.06.2018 00:00:00 15,5 13,5 24 13 41 22 ZW 1021,7 - 0,0
18.06.2018 23:00:00 15,4 12,7 26 14 44 24 ZW 1021,4 - 0,0
18.06.2018 22:00:00 15,9 11,5 26 14 43 23 ZW 1021,1 - 0,0
18.06.2018 21:00:00 16,8 10,6 24 13 44 24 ZW 1021,0 - 0,0
18.06.2018 20:00:00 17,3 10,9 24 13 45 25 ZW 1020,7 - 0,0
18.06.2018 19:00:00 18,2 11,3 28 15 50 27 ZW 1020,8 - 0,0
18.06.2018 18:00:00 18,4 11,2 25 13 50 27 WZW 1020,6 - 0,0
18.06.2018 17:00:00 18,3 11,6 29 16 49 26 ZW 1020,8 - 0,0
18.06.2018 16:00:00 17,4 11,4 28 15 48 26 ZW 1021,2 - 0,0
18.06.2018 15:00:00 16,8 11,9 24 13 50 27 ZW 1021,1 - 0,0
18.06.2018 14:00:00 16,9 12,2 26 14 53 29 ZW 1021,0 - 0,0
18.06.2018 13:00:00 16,9 12,4 24 13 49 27 ZW 1020,7 - 0,0
18.06.2018 12:00:00 16,4 12,7 23 13 52 28 ZW 1020,1 - 0,0
18.06.2018 11:00:00 16,7 12,0 28 15 49 26 ZW 1020,0 - 0,0
18.06.2018 10:00:00 17,1 13,0 23 12 45 24 ZW 1019,8 - 0,0
18.06.2018 09:00:00 16,3 14,0 22 12 42 23 ZW 1019,3 - 0,0
18.06.2018 08:00:00 16,0 14,2 21 11 40 21 ZW 1018,9 - 0,0
18.06.2018 07:00:00 15,9 14,3 18 10 36 19 ZW 1018,5 - 0,0
18.06.2018 06:00:00 16,2 14,2 19 11 36 20 ZW 1018,5 - 0,0
18.06.2018 05:00:00 16,2 14,2 20 11 36 19 ZW 1018,1 - 0,0
18.06.2018 04:00:00 15,4 13,8 15 8 27 15 ZZW 1018,2 - 0,0
18.06.2018 03:00:00 15,1 13,0 14 8 31 17 ZZW 1018,5 - 0,0
18.06.2018 02:00:00 15,1 12,2 15 8 36 19 ZZW 1018,7 - 0,0
18.06.2018 01:00:00 15,1 11,7 18 10 32 17 ZZW 1019,0 - 0,0
18.06.2018 00:00:00 15,2 11,6 22 12 38 21 ZZW 1019,3 - 0,0
17.06.2018 23:00:00 15,7 10,9 19 11 40 22 ZW 1019,3 - 0,0
17.06.2018 22:00:00 16,0 10,1 18 10 40 21 ZW 1019,0 - 0,0
17.06.2018 21:00:00 16,2 10,3 21 12 40 22 ZW 1019,2 - 0,0
17.06.2018 20:00:00 16,2 9,6 23 13 45 25 ZW 1019,1 12 0,0
17.06.2018 19:00:00 16,9 9,6 23 12 51 28 WZW 1018,9 - 0,0
17.06.2018 18:00:00 17,4 9,8 30 16 55 30 ZW 1018,8 - 0,0
17.06.2018 17:00:00 17,4 9,0 26 14 53 28 ZW 1018,7 - 0,0
17.06.2018 16:00:00 18,2 9,0 27 15 52 28 ZW 1018,5 - 0,0
17.06.2018 15:00:00 17,5 9,1 26 14 49 26 ZW 1018,4 - 0,0
17.06.2018 14:00:00 16,5 10,6 19 11 44 24 W 1018,2 - 0,0
17.06.2018 13:00:00 17,0 9,7 19 10 41 22 ZW 1017,8 - 0,0
17.06.2018 12:00:00 16,0 11,0 23 12 36 20 ZW 1017,8 - 0,0
17.06.2018 11:00:00 15,4 11,4 21 12 35 19 ZW 1017,8 12 0,0
17.06.2018 10:00:00 15,3 10,9 15 8 35 19 WZW 1017,7 - 0,0
17.06.2018 09:00:00 15,2 11,0 13 7 36 19 WZW 1017,2 - 0,0
17.06.2018 08:00:00 14,4 11,7 17 9 28 15 ZZW 1016,8 15 0,0
17.06.2018 07:00:00 14,0 11,3 17 9 29 16 ZZW 1016,2 - 0,0
17.06.2018 06:00:00 13,8 11,5 15 8 26 14 ZZW 1016,0 - 0,0
17.06.2018 05:00:00 13,9 11,2 16 8 29 15 ZZW 1016,1 - 0,0
17.06.2018 04:00:00 14,5 11,3 15 8 39 21 ZW 1016,1 - 0,0
17.06.2018 03:00:00 14,3 10,3 21 12 44 24 ZW 1015,6 - 0,0
17.06.2018 02:00:00 15,0 11,0 24 13 46 25 ZW 1015,7 18 0,0
17.06.2018 01:00:00 15,1 10,5 22 12 38 20 ZW 1015,4 - 0,0
17.06.2018 00:00:00 15,0 11,0 23 12 37 20 ZW 1015,6 - 0,0
16.06.2018 23:00:00 15,4 10,6 22 12 36 19 ZW 1015,4 18 0,0
16.06.2018 22:00:00 16,2 9,8 19 10 33 18 ZW 1015,4 - 0,0
16.06.2018 21:00:00 16,5 9,7 20 11 41 22 ZW 1015,6 - 0,0
16.06.2018 20:00:00 17,3 9,2 25 14 54 29 ZW 1015,7 - 0,0
16.06.2018 19:00:00 17,2 9,1 29 16 54 29 WZW 1015,5 - 0,0
16.06.2018 18:00:00 18,1 8,1 29 16 49 26 ZW 1015,8 - 0,0
16.06.2018 17:00:00 17,6 8,2 31 17 54 29 WZW 1015,8 - 0,0
16.06.2018 16:00:00 18,7 8,6 25 14 50 27 WZW 1015,6 - 0,0
16.06.2018 15:00:00 17,4 7,4 26 14 48 26 ZW 1015,6 - 0,0
16.06.2018 14:00:00 17,6 9,0 23 13 46 25 WZW 1015,7 18 0,0
16.06.2018 13:00:00 17,5 8,4 22 12 46 25 ZW 1015,8 - 0,0
16.06.2018 12:00:00 17,0 9,2 25 14 45 24 ZW 1015,7 - 0,0
16.06.2018 11:00:00 17,2 11,9 21 12 37 20 ZW 1015,6 - 0,0
16.06.2018 10:00:00 16,2 12,0 10 5 28 15 WZW 1015,5 - 0,0
16.06.2018 09:00:00 15,3 12,4 15 8 38 20 WZW 1015,5 - 0,0
16.06.2018 08:00:00 14,5 12,7 19 11 32 17 ZW 1015,4 - 0,0
16.06.2018 07:00:00 13,6 12,2 14 7 26 14 ZW 1014,9 - 0,0
16.06.2018 06:00:00 13,5 12,1 16 9 29 16 ZZW 1015,0 - 0,0
16.06.2018 05:00:00 13,7 12,1 19 11 32 18 ZW 1015,4 - 0,0
16.06.2018 04:00:00 12,8 11,2 17 9 29 16 ZW 1015,6 - 0,0
16.06.2018 03:00:00 12,6 10,5 14 7 22 12 ZZW 1015,8 - 0,0
16.06.2018 02:00:00 12,9 10,1 14 8 23 12 ZZW 1016,1 15 0,0
16.06.2018 01:00:00 13,3 9,4 14 8 27 15 ZZW 1016,3 - 0,0
16.06.2018 00:00:00 14,0 8,6 19 10 30 16 ZW 1016,3 - 0,0
15.06.2018 23:00:00 14,5 8,2 13 7 29 15 ZZW 1016,6 12 0,0
15.06.2018 22:00:00 15,6 8,6 17 9 31 17 ZW 1016,4 - 0,0
15.06.2018 21:00:00 17,2 9,9 16 9 28 15 ZW 1016,5 - 0,0
15.06.2018 20:00:00 18,8 8,7 16 9 33 18 WZW 1016,6 - 0,0
15.06.2018 19:00:00 18,0 12,9 19 10 35 19 WNW 1016,5 - 0,0
15.06.2018 18:00:00 17,8 12,3 28 15 36 19 WNW 1016,9 - 0,0
15.06.2018 17:00:00 18,1 12,3 23 12 32 17 WNW 1017,0 - 0,0
15.06.2018 16:00:00 19,0 11,6 18 10 27 15 WNW 1017,1 - 0,0
15.06.2018 15:00:00 17,8 13,1 16 9 26 14 WNW 1017,1 - 0,0
15.06.2018 14:00:00 19,3 12,8 18 10 22 12 NW 1017,1 12 0,0
15.06.2018 13:00:00 18,6 13,0 11 6 17 9 NW 1017,0 - 0,0
15.06.2018 12:00:00 18,3 12,7 12 7 17 9 NW 1016,9 - 0,0
15.06.2018 11:00:00 18,3 12,9 9 5 14 7 NW 1016,9 - 0,0
15.06.2018 10:00:00 18,1 12,8 6 3 13 7 WNW 1016,8 - 0,0
15.06.2018 09:00:00 15,7 12,3 9 5 14 8 Z 1016,5 - 0,0
15.06.2018 08:00:00 14,1 11,6 9 5 13 7 ZZW 1016,2 - 0,0
15.06.2018 07:00:00 13,0 11,6 9 5 12 7 ZZW 1015,9 - 0,0
15.06.2018 06:00:00 12,7 11,3 6 4 12 6 ZZW 1015,6 - 0,0
15.06.2018 05:00:00 12,9 11,1 6 3 14 8 ZW 1015,6 - 0,0
15.06.2018 04:00:00 13,6 11,5 9 5 16 9 ZZW 1015,5 - 0,0
15.06.2018 03:00:00 13,4 11,3 11 6 19 10 ZZW 1015,6 - 0,0
15.06.2018 02:00:00 13,5 11,2 9 5 20 11 ZZW 1015,6 15 0,0

tt = temperatuur
td = dauwpunt
ff = windsnelheid
fx = windstoten
dd = windrichting
ppp = luchtdruk
vv = zicht
rr = neerslag

Weerstations in de omgeving